AirNav   Everest Fuels
 
 758 users online  

WV20 Wetzel County Hospital Heliport
New Martinsville, West Virginia, USA

GOING TO NEW MARTINSVILLE?


FAA INFORMATION EFFECTIVE 16 JULY 2020

Location

FAA Identifier: WV20
Lat/Long: 39-40-52.2800N 080-50-55.3100W
39-40.871333N 080-50.921833W
39.6811889,-80.8486972
(estimated)
Elevation: 689 ft. / 210 m (estimated)
Variation: 07W (1990)
From city: 3 miles N of NEW MARTINSVILLE, WV
Time zone: UTC -4 (UTC -5 during Standard Time)
Zip code: 26624

Heliport Operations

Heliport use: Private use, MEDICAL USE ONLY.
Activation date: 03/1992
Control tower: no
ARTCC: CLEVELAND CENTER
FSS: ELKINS FLIGHT SERVICE STATION [703-724-4288]
Attendance: CONTINUOUS
Wind indicator: lighted
Segmented circle: no
Lights: FOR PERIMETER LGTS CALL 304-455-8100.
Beacon: white-green-yellow (heliport)
FOR ROTG BCN CALL 304-455-8100.

Heliport Communications

WX AWOS-3 at MPG (13 nm NE): 119.05 (304-845-2959)

Nearby radio navigation aids

VOR radial/distance  VOR name  Freq  Var
AIRr191/20.2BELLAIRE VOR/DME117.1007W
JPUr062/28.3PARKERSBURG VOR/DME108.6003W
HLGr207/37.0WHEELING VOR/DME112.2007W
CKBr318/37.2CLARKSBURG VOR/DME112.6004W

 
NDB name  Hdg/Dist  Freq  Var  ID
CADIZ174/34.223907WCFX -.-. ..-. -..-

Heliport Services

Runway Information

Helipad H1

Dimensions: 20 x 20 ft. / 6 x 6 m
Surface: concrete
Runway edge lights: PERI
Latitude: 39-40.871333N
Longitude: 080-50.921833W
Elevation: 689.0 ft.
Traffic pattern: leftleft

Heliport Ownership and Management from official FAA records

Ownership: Publicly-owned
Owner: WETZEL COUNTY HOSPITAL ASSOCIATION
3 EAST BENJAMIN DRIVE
NEW MARTINSVILLE, WV 26155
Phone 304-455-8000
Manager: TAD GREENE
3 EAST BENJAMIN DRIVE
NEW MARTINSVILLE, WV 26155
Phone 304-455-8195
MICHAEL CONNERS 304-551-4083

Heliport Operational Statistics

Aircraft based on the field: 1
Helicopters: 1
    

Additional Remarks

A52-H1 BLDG 175 FT WEST OF PAD; 20 FT PLINES 300 FT WEST OF PAD; 10 TREES 300 FT WEST OF PAD.
HELIPAD OPERATOR AIR EVAC LIFETEAM (BASE78)
FOR CD CTC CLARKSBURG APCH AT 304-842-6676, WHEN APCH CLSD CTC CLEVELAND ARTCC AT 440-774-0226.

Instrument Procedures

There are no published instrument procedures at WV20.

Some nearby airports with instrument procedures:

KMPG - Marshall County Airport (13 nm NE)
4G5 - Monroe County Airport (13 nm NW)
2P7 - Alderman Airport (23 nm N)
6G5 - Barnesville-Bradfield Airport (25 nm NW)
KHLG - Wheeling Ohio County Airport (31 nm N)
 
Loc | Ops | Rwys | IFR | FBO | Links
Com | Nav | Svcs | Stats | Notes
Area around WV20 (Wetzel County Hospital Heliport)
 
Road maps at: MapQuest Bing Google
 
Aerial photo
No photo
 
Sectional chart

 
Airport distance calculator
Flying to Wetzel County Hospital Heliport? Find the distance to fly.

From to WV20

Sunrise and sunset
Times for 10-Aug-2020
 Local
(UTC-4)
 Zulu
(UTC)
Morning civil twilight06:0410:04
Sunrise06:3310:33
Sunset20:2400:24
Evening civil twilight20:5400:54

Current date and time
Zulu (UTC)  10-Aug-2020 04:01:30
Local (UTC-4)  10-Aug-2020 00:01:30
 
METAR
KHLG 
31nm N 
100353Z AUTO 21005KT 10SM CLR 24/16 A3012 RMK AO2 SLP191 T02390161
KPKB 
33nm SW 
100353Z AUTO 00000KT 7SM CLR 21/19 A3012 RMK AO2 SLP191 T02060189
KCKB 
37nm SE 
100353Z AUTO 00000KT 7SM CLR 21/17 A3014 RMK AO2 SLP190 T02110172 $
KAFJ 
37nm NE 
100356Z AUTO 20003KT 10SM CLR 20/18 A3015 RMK AO2 SLP200 T02000183
KCDI 
38nm NW 
100355Z AUTO 00000KT 5SM BR CLR 19/19 A3011 RMK AO2 T01920186
KMGW 
43nm E 
100353Z AUTO 20003KT 10SM CLR 20/17 A3014 RMK AO2 SLP198 T02000167
KW22 
49nm SE 
100355Z AUTO 00000KT 10SM CLR 18/18 A3016 RMK AO2
TAF
KHLG 
31nm N 
091720Z 0918/1018 VRB04KT P6SM FEW040
KPKB 
33nm SW 
092057Z 0921/1018 VRB03KT P6SM FEW080 FM100800 00000KT 4SM BR SKC FM101100 00000KT 1/4SM FG OVC002 FM101300 VRB03KT P6SM SKC
KCKB 
37nm SE 
092057Z 0921/1018 24004KT P6SM FEW050 FM100000 00000KT P6SM SKC FM100800 00000KT 4SM BR SKC FM101100 00000KT 1SM BR SKC FM101200 VRB03KT P6SM FEW050
NOTAMs
Click for the latest NOTAMs
NOTAMs are issued by the DoD/FAA and will open in a separate window not controlled by AirNav.

 

 
 

Would you like to see your business listed on this page?

 If your business provides an interesting product or service to pilots, flight crews, aircraft, or users of the Wetzel County Hospital Heliport, you should consider listing it here.  To start the listing process, click on the button below
 
Add a business
 

Other Pages about Wetzel County Hospital Heliport

Update a link
 
Copyright © AirNav, LLC. All rights reserved. Privacy Policy  Contact